Darstellungsparameter: Aktuell verwendete Einstellungen:
Skalierung der Graphiken ... ?
xyx+y,   Skalierungsfaktor:      Skalierung: Modus: x, Faktor: 1
Darstellungszeitraum ... ?
Vom - - bis: - -   Zeitraum: 03.08.2019 - 02.08.2020
Min/Max/Avg-Anzeige ... ?
Zeige MMA aktuell
Zeige MMA Monat
Zeige MMA alles
Zeige --A aktuell
Zeige --A Monat
Zeige --A alles
Keine MMA-Anzeige
MMA:
Keine MMA-Graphiken
MMA-Basis: 03.08.2019 - 02.08.2020
Quicknavigation für Darstellung... ?
Tage:      1T, 2T, 3T, 5T -1T -2T -3T -5T +1T +2T +3T +5T
Wochen: 1W, 2W, 3W -1W -2W -3W +1W +2W +3W
Monate: 1M, 3M, 6M -1M -3M -6M +1M +3M +6M
Jahre:    1J, 3J, 5J, 10J -1J -3J -5J -10J +1J +3J +5J +10J
Nutze für die Darstellung ... ?
Originaldaten oder ...
Mittelwerte Minima Maxima auf...
Stundenbasis Tagesbasis Wochenbasis
Monatsbasis Jahresbasis      Datenbasis: Minima auf Tagesbasis
Darstellen als:
Statistik (Auto) Statistik J:M      Darstellung:
Zur Graphik,    zurück zur Übersicht aller Sensoren.
 
Tabellarische Datenbersicht: ?
 
Sensor: Nr:Datum:Temp:Feuchte:
Aussen-T/F 1 03-08-2019 00:00:00 16.7 C 20 %
2 04-08-2019 00:00:00 12.4 C 20 %
3 05-08-2019 00:00:00 16.8 C 20 %
4 06-08-2019 00:00:00 16.2 C 20 %
5 07-08-2019 00:00:00 15.8 C 20 %
6 08-08-2019 00:00:00 14.6 C 20 %
7 09-08-2019 00:00:00 14.4 C 20 %
8 10-08-2019 00:00:00 15.8 C 20 %
9 11-08-2019 00:00:00 13 C 20 %
10 12-08-2019 00:00:00 12.3 C 20 %
11 13-08-2019 00:00:00 12.3 C 20 %
12 14-08-2019 00:00:00 10.1 C 20 %
13 15-08-2019 00:00:00 14.6 C 25 %
14 16-08-2019 00:00:00 13.1 C 20 %
15 17-08-2019 00:00:00 15.2 C 23 %
16 18-08-2019 00:00:00 16.1 C 21 %
17 19-08-2019 00:00:00 14 C 20 %
18 20-08-2019 00:00:00 10.2 C 20 %
19 21-08-2019 00:00:00 10.1 C 20 %
20 22-08-2019 00:00:00 9.5 C 20 %
21 23-08-2019 00:00:00 10.4 C 20 %
22 24-08-2019 00:00:00 11.1 C 20 %
23 25-08-2019 00:00:00 14.2 C 20 %
24 26-08-2019 00:00:00 16.4 C 20 %
25 27-08-2019 00:00:00 16.3 C 20 %
Sensor: Nr:Datum:Temp:Feuchte:
Aussen-T/F 26 28-08-2019 00:00:00 17.7 C 20 %
27 29-08-2019 00:00:00 17.2 C 20 %
28 30-08-2019 00:00:00 15.3 C 20 %
29 31-08-2019 00:00:00 14.1 C 20 %
30 01-09-2019 00:00:00 15 C 20 %
31 02-09-2019 00:00:00 9.7 C 20 %
32 03-09-2019 00:00:00 8.4 C 20 %
33 04-09-2019 00:00:00 9.9 C 20 %
34 05-09-2019 00:00:00 12.3 C 20 %
35 06-09-2019 00:00:00 7.3 C 20 %
36 07-09-2019 00:00:00 11 C 20 %
37 08-09-2019 00:00:00 10.5 C 20 %
38 09-09-2019 00:00:00 8.1 C 20 %
39 10-09-2019 00:00:00 7.4 C 20 %
40 11-09-2019 00:00:00 5.8 C 20 %
41 12-09-2019 00:00:00 15.1 C 20 %
42 13-09-2019 00:00:00 14.6 C 20 %
43 14-09-2019 00:00:00 9.6 C 20 %
44 15-09-2019 00:00:00 8 C 20 %
45 16-09-2019 00:00:00 10.4 C 20 %
46 17-09-2019 00:00:00 12 C 20 %
47 18-09-2019 00:00:00 5.1 C 20 %
48 19-09-2019 00:00:00 4.3 C 20 %
49 20-09-2019 00:00:00 3.3 C 20 %
50 21-09-2019 00:00:00 3.7 C 20 %
Sensor: Nr:Datum:Temp:Feuchte:
Aussen-T/F 51 22-09-2019 00:00:00 6.2 C 20 %
52 23-09-2019 00:00:00 13.4 C 20 %
53 24-09-2019 00:00:00 9.2 C 20 %
54 25-09-2019 00:00:00 13.2 C 20 %
55 26-09-2019 00:00:00 12.4 C 20 %
56 27-09-2019 00:00:00 12.5 C 20 %
57 28-09-2019 00:00:00 12.1 C 20 %
58 29-09-2019 00:00:00 13.1 C 20 %
59 30-09-2019 00:00:00 12.7 C 20 %
60 01-10-2019 00:00:00 11.8 C 20 %
61 02-10-2019 00:00:00 7.8 C 20 %
62 03-10-2019 00:00:00 6.6 C 20 %
63 04-10-2019 00:00:00 7 C 22 %
64 05-10-2019 00:00:00 6.6 C 20 %
65 06-10-2019 00:00:00 5.5 C 30 %
66 07-10-2019 00:00:00 7.9 C 20 %
67 08-10-2019 00:00:00 10.6 C 25 %
68 09-10-2019 00:00:00 9.6 C 20 %
69 10-10-2019 00:00:00 8.7 C 20 %
70 11-10-2019 00:00:00 7.8 C 20 %
71 12-10-2019 00:00:00 7.8 C 20 %
72 13-10-2019 00:00:00 11.8 C 20 %
73 14-10-2019 00:00:00 11.6 C 20 %
74 15-10-2019 00:00:00 11 C 20 %
75 16-10-2019 00:00:00 9.8 C 20 %
Sensor: Nr:Datum:Temp:Feuchte:
Aussen-T/F 76 17-10-2019 00:00:00 11.4 C 20 %
77 18-10-2019 00:00:00 8.3 C 20 %
78 19-10-2019 00:00:00 8.5 C 20 %
79 20-10-2019 00:00:00 12 C 33 %
80 21-10-2019 00:00:00 10.2 C 20 %
81 22-10-2019 00:00:00 8.4 C 20 %
82 23-10-2019 00:00:00 6.7 C 20 %
83 24-10-2019 00:00:00 10.4 C 20 %
84 25-10-2019 00:00:00 10 C 20 %
85 26-10-2019 00:00:00 9 C 20 %
86 27-10-2019 00:00:00 3.9 C 20 %
87 28-10-2019 00:00:00 4.3 C 20 %
88 29-10-2019 00:00:00 1.3 C 20 %
89 30-10-2019 00:00:00 0 C 20 %
90 31-10-2019 00:00:00 -2.1 C 20 %
91 01-11-2019 00:00:00 -0.7 C 25 %
92 02-11-2019 00:00:00 9.6 C 20 %
93 03-11-2019 00:00:00 8.9 C 20 %
94 04-11-2019 00:00:00 7.2 C 20 %
95 05-11-2019 00:00:00 7.1 C 20 %
96 06-11-2019 00:00:00 6.4 C 23 %
97 07-11-2019 00:00:00 3.3 C 20 %
98 08-11-2019 00:00:00 1.1 C 26 %
99 09-11-2019 00:00:00 0.2 C 20 %
100 10-11-2019 00:00:00 -0.1 C 23 %
Sensor: Nr:Datum:Temp:Feuchte:
Aussen-T/F 101 11-11-2019 00:00:00 2.4 C 20 %
102 12-11-2019 00:00:00 1.5 C 20 %
103 13-11-2019 00:00:00 2.1 C 20 %
104 14-11-2019 00:00:00 1.4 C 20 %
105 15-11-2019 00:00:00 2.1 C 20 %
106 16-11-2019 00:00:00 -1.6 C 26 %
107 17-11-2019 00:00:00 -2.2 C 29 %
108 18-11-2019 00:00:00 1.5 C 28 %
109 19-11-2019 00:00:00 -0.6 C 20 %
110 20-11-2019 00:00:00 -2.3 C 20 %
111 21-11-2019 00:00:00 -2.7 C 29 %
112 22-11-2019 00:00:00 0 C 27 %
113 23-11-2019 00:00:00 2 C 21 %
114 24-11-2019 00:00:00 -0.3 C 35 %
115 25-11-2019 00:00:00 0.8 C 31 %
116 26-11-2019 00:00:00 2.3 C 26 %
117 27-11-2019 00:00:00 7 C 20 %
118 28-11-2019 00:00:00 8.9 C 20 %
119 29-11-2019 00:00:00 1.1 C 20 %
120 30-11-2019 00:00:00 -1.5 C 36 %
121 01-12-2019 00:00:00 -1.3 C 20 %
122 02-12-2019 00:00:00 -2.9 C 25 %
123 03-12-2019 00:00:00 2.2 C 30 %
124 04-12-2019 00:00:00 -2.9 C 35 %
125 05-12-2019 00:00:00 -3.6 C 40 %
Sensor: Nr:Datum:Temp:Feuchte:
Aussen-T/F 126 06-12-2019 00:00:00 -3.8 C 27 %
127 07-12-2019 00:00:00 6.3 C 20 %
128 08-12-2019 00:00:00 7.5 C 20 %
129 09-12-2019 00:00:00 4 C 20 %
130 10-12-2019 00:00:00 0.1 C 25 %
131 11-12-2019 00:00:00 2.3 C 25 %
132 12-12-2019 00:00:00 0.2 C 25 %
133 13-12-2019 00:00:00 0.6 C 27 %
134 14-12-2019 00:00:00 3.4 C 20 %
135 15-12-2019 00:00:00 2.8 C 20 %
136 16-12-2019 00:00:00 4 C 33 %
137 17-12-2019 00:00:00 6.3 C 20 %
138 18-12-2019 00:00:00 2 C 29 %
139 19-12-2019 00:00:00 0.7 C 30 %
140 20-12-2019 00:00:00 2.5 C 26 %
141 21-12-2019 00:00:00 3 C 25 %
142 22-12-2019 00:00:00 4.9 C 23 %
143 23-12-2019 00:00:00 4.8 C 23 %
144 24-12-2019 00:00:00 4.3 C 20 %
145 25-12-2019 00:00:00 4.5 C 25 %
146 26-12-2019 00:00:00 3 C 35 %
147 27-12-2019 00:00:00 0.7 C 26 %
148 28-12-2019 00:00:00 -3.2 C 38 %
149 29-12-2019 00:00:00 -5 C 27 %
150 30-12-2019 00:00:00 -4.5 C 31 %
Sensor: Nr:Datum:Temp:Feuchte:
Aussen-T/F 151 31-12-2019 00:00:00 -3.6 C 26 %
152 01-01-2020 00:00:00 -3.2 C 28 %
153 02-01-2020 00:00:00 -2.6 C 29 %
154 03-01-2020 00:00:00 2.9 C 27 %
155 04-01-2020 00:00:00 0.8 C 25 %
156 05-01-2020 00:00:00 4.3 C 29 %
157 06-01-2020 00:00:00 -1.5 C 29 %
158 07-01-2020 00:00:00 1.2 C 26 %
159 08-01-2020 00:00:00 4.7 C 28 %
160 09-01-2020 00:00:00 8.4 C 26 %
161 10-01-2020 00:00:00 5.8 C 26 %
162 11-01-2020 00:00:00 0.2 C 20 %
163 12-01-2020 00:00:00 0.7 C 21 %
164 13-01-2020 00:00:00 3.5 C 27 %
165 14-01-2020 00:00:00 5.6 C 20 %
166 15-01-2020 00:00:00 5.7 C 20 %
167 16-01-2020 00:00:00 4.7 C 33 %
168 17-01-2020 00:00:00 1.2 C 30 %
169 18-01-2020 00:00:00 0 C 20 %
170 19-01-2020 00:00:00 1.6 C 31 %
171 20-01-2020 00:00:00 -3.1 C 20 %
172 21-01-2020 00:00:00 -4.5 C 42 %
173 22-01-2020 00:00:00 -4.1 C 41 %
174 23-01-2020 00:00:00 -2 C 35 %
175 24-01-2020 00:00:00 -0.3 C 27 %
Sensor: Nr:Datum:Temp:Feuchte:
Aussen-T/F 176 25-01-2020 00:00:00 0.3 C 34 %
177 26-01-2020 00:00:00 0.2 C 32 %
178 27-01-2020 00:00:00 0.5 C 30 %
179 28-01-2020 00:00:00 3.2 C 20 %
180 29-01-2020 00:00:00 1.3 C 20 %
181 30-01-2020 00:00:00 4.3 C 20 %
182 31-01-2020 00:00:00 11.2 C 23 %
183 01-02-2020 00:00:00 7.6 C 27 %
184 02-02-2020 00:00:00 6 C 22 %
185 03-02-2020 00:00:00 6.2 C 20 %
186 04-02-2020 00:00:00 3 C 26 %
187 05-02-2020 00:00:00 -1.6 C 25 %
188 06-02-2020 00:00:00 -2.8 C 23 %
189 07-02-2020 00:00:00 -3.3 C 30 %
190 08-02-2020 00:00:00 -3 C 33 %
191 09-02-2020 00:00:00 0.8 C 20 %
192 10-02-2020 00:00:00 3.9 C 20 %
193 11-02-2020 00:00:00 3.2 C 20 %
194 12-02-2020 00:00:00 1.3 C 20 %
195 13-02-2020 00:00:00 -1.3 C 29 %
196 14-02-2020 00:00:00 1.6 C 29 %
197 15-02-2020 00:00:00 0.3 C 20 %
198 16-02-2020 00:00:00 9.2 C 20 %
199 17-02-2020 00:00:00 3.8 C 20 %
200 18-02-2020 00:00:00 4.8 C 20 %
Sensor: Nr:Datum:Temp:Feuchte:
Aussen-T/F 201 19-02-2020 00:00:00 1.7 C 20 %
202 20-02-2020 00:00:00 4.8 C 28 %
203 21-02-2020 00:00:00 1.1 C 26 %
204 22-02-2020 00:00:00 3.1 C 20 %
205 23-02-2020 00:00:00 6.7 C 31 %
206 24-02-2020 00:00:00 3.7 C 31 %
207 25-02-2020 00:00:00 4.2 C 20 %
208 26-02-2020 00:00:00 2.7 C 29 %
209 27-02-2020 00:00:00 0 C 33 %
210 28-02-2020 00:00:00 0.2 C 25 %
211 29-02-2020 00:00:00 3.3 C 20 %
212 01-03-2020 00:00:00 2.9 C 20 %
213 02-03-2020 00:00:00 1.1 C 20 %
214 03-03-2020 00:00:00 1 C 23 %
215 04-03-2020 00:00:00 2.3 C 25 %
216 05-03-2020 00:00:00 3.4 C 37 %
217 06-03-2020 00:00:00 4.4 C 36 %
218 07-03-2020 00:00:00 3.7 C 20 %
219 08-03-2020 00:00:00 5.9 C 22 %
220 09-03-2020 00:00:00 4.5 C 20 %
221 10-03-2020 00:00:00 4.6 C 35 %
222 11-03-2020 00:00:00 12.6 C 30 %
223 12-03-2020 00:00:00 6.2 C 20 %
224 13-03-2020 00:00:00 4.8 C 26 %
225 14-03-2020 00:00:00 0.3 C 20 %
Sensor: Nr:Datum:Temp:Feuchte:
Aussen-T/F 226 15-03-2020 00:00:00 2.9 C 20 %
227 16-03-2020 00:00:00 0.6 C 20 %
228 17-03-2020 00:00:00 6.1 C 20 %
229 18-03-2020 00:00:00 2.9 C 20 %
230 19-03-2020 00:00:00 8.1 C 20 %
231 20-03-2020 00:00:00 5 C 25 %
232 21-03-2020 00:00:00 1.6 C 20 %
233 22-03-2020 00:00:00 -1.1 C 20 %
234 23-03-2020 00:00:00 -3.2 C 20 %
235 24-03-2020 00:00:00 -4.7 C 20 %
236 25-03-2020 00:00:00 -4.4 C 20 %
237 26-03-2020 00:00:00 -1.1 C 20 %
238 27-03-2020 00:00:00 -0.6 C 20 %
239 28-03-2020 00:00:00 1 C 20 %
240 29-03-2020 00:00:00 2.5 C 20 %
241 30-03-2020 00:00:00 -4.5 C 20 %
242 31-03-2020 00:00:00 0.9 C 20 %
243 01-04-2020 00:00:00 -4.7 C 20 %
244 02-04-2020 00:00:00 -3.3 C 20 %
245 03-04-2020 00:00:00 2.2 C 20 %
246 04-04-2020 00:00:00 -1.8 C 20 %
247 05-04-2020 00:00:00 -0.9 C 20 %
248 06-04-2020 00:00:00 1.2 C 20 %
249 07-04-2020 00:00:00 4.7 C 20 %
250 08-04-2020 00:00:00 5 C 20 %
Sensor: Nr:Datum:Temp:Feuchte:
Aussen-T/F 251 09-04-2020 00:00:00 6.6 C 20 %
252 10-04-2020 00:00:00 5.3 C 20 %
253 11-04-2020 00:00:00 4.4 C 20 %
254 12-04-2020 00:00:00 6.5 C 20 %
255 13-04-2020 00:00:00 3.3 C 20 %
256 14-04-2020 00:00:00 -0.9 C 20 %
257 15-04-2020 00:00:00 -0.9 C 20 %
258 16-04-2020 00:00:00 1.4 C 20 %
259 17-04-2020 00:00:00 5.8 C 20 %
260 18-04-2020 00:00:00 8.1 C 20 %
261 19-04-2020 00:00:00 8.5 C 20 %
262 20-04-2020 00:00:00 5.9 C 20 %
263 21-04-2020 00:00:00 6.1 C 20 %
264 22-04-2020 00:00:00 5.3 C 20 %
265 23-04-2020 00:00:00 5.2 C 20 %
266 24-04-2020 00:00:00 5.9 C 20 %
267 25-04-2020 00:00:00 7 C 20 %
268 26-04-2020 00:00:00 2.3 C 20 %
269 27-04-2020 00:00:00 3.4 C 20 %
270 28-04-2020 00:00:00 7 C 26 %
271 29-04-2020 00:00:00 11 C 20 %
272 30-04-2020 00:00:00 8.3 C 20 %
273 01-05-2020 00:00:00 6.8 C 20 %
274 02-05-2020 00:00:00 6 C 20 %
275 03-05-2020 00:00:00 2.8 C 20 %
Sensor: Nr:Datum:Temp:Feuchte:
Aussen-T/F 276 04-05-2020 00:00:00 6.1 C 30 %
277 05-05-2020 00:00:00 3.4 C 20 %
278 06-05-2020 00:00:00 1.4 C 20 %
279 07-05-2020 00:00:00 2.7 C 20 %
280 08-05-2020 00:00:00 6.3 C 20 %
281 09-05-2020 00:00:00 8.8 C 20 %
282 10-05-2020 00:00:00 10.4 C 24 %
283 11-05-2020 00:00:00 4.6 C 20 %
284 12-05-2020 00:00:00 0.1 C 20 %
285 13-05-2020 00:00:00 1.2 C 20 %
286 14-05-2020 00:00:00 3.7 C 20 %
287 15-05-2020 00:00:00 1.4 C 20 %
288 16-05-2020 00:00:00 2.1 C 20 %
289 17-05-2020 00:00:00 6.3 C 20 %
290 18-05-2020 00:00:00 5.4 C 20 %
291 19-05-2020 00:00:00 7.6 C 20 %
292 20-05-2020 00:00:00 10.8 C 20 %
293 21-05-2020 00:00:00 9.8 C 20 %
294 22-05-2020 00:00:00 12.3 C 20 %
295 23-05-2020 00:00:00 10.6 C 26 %
296 24-05-2020 00:00:00 9.7 C 20 %
297 25-05-2020 00:00:00 11.1 C 20 %
298 26-05-2020 00:00:00 6.8 C 20 %
299 27-05-2020 00:00:00 7.2 C 20 %
300 28-05-2020 00:00:00 11.8 C 20 %
Sensor: Nr:Datum:Temp:Feuchte:
Aussen-T/F 301 29-05-2020 00:00:00 6.2 C 20 %
302 30-05-2020 00:00:00 7.5 C 20 %
303 31-05-2020 00:00:00 7.8 C 20 %
304 01-06-2020 00:00:00 7.8 C 20 %
305 02-06-2020 00:00:00 10 C 20 %
306 03-06-2020 00:00:00 13.4 C 20 %
307 04-06-2020 00:00:00 10.5 C 27 %
308 05-06-2020 00:00:00 8.2 C 27 %
309 06-06-2020 00:00:00 7.4 C 20 %
310 07-06-2020 00:00:00 7.1 C 20 %
311 08-06-2020 00:00:00 7.3 C 20 %
312 09-06-2020 00:00:00 9 C 20 %
313 10-06-2020 00:00:00 12.1 C 23 %
314 11-06-2020 00:00:00 12.1 C 24 %
315 12-06-2020 00:00:00 9.7 C 20 %
316 13-06-2020 00:00:00 15.9 C 20 %
317 14-06-2020 00:00:00 17 C 25 %
318 15-06-2020 00:00:00 16.3 C 25 %
319 16-06-2020 00:00:00 14.2 C 26 %
320 17-06-2020 00:00:00 13.2 C 21 %
321 18-06-2020 00:00:00 13.8 C 20 %
322 19-06-2020 00:00:00 11.9 C 20 %
323 20-06-2020 00:00:00 11.8 C 20 %
324 21-06-2020 00:00:00 11.3 C 20 %
325 22-06-2020 00:00:00 14.1 C 20 %
Sensor: Nr:Datum:Temp:Feuchte:
Aussen-T/F 326 23-06-2020 00:00:00 10.5 C 20 %
327 24-06-2020 00:00:00 12.4 C 20 %
328 25-06-2020 00:00:00 14.3 C 20 %
329 26-06-2020 00:00:00 13.3 C 20 %
330 27-06-2020 00:00:00 17.2 C 20 %
331 28-06-2020 00:00:00 15 C 21 %
332 29-06-2020 00:00:00 11.5 C 20 %
333 30-06-2020 00:00:00 9.4 C 20 %
334 01-07-2020 00:00:00 15.2 C 20 %
335 02-07-2020 00:00:00 14.6 C 20 %
336 03-07-2020 00:00:00 10.8 C 20 %
337 04-07-2020 00:00:00 11.9 C 20 %
338 05-07-2020 00:00:00 19.4 C 20 %
339 06-07-2020 00:00:00 11.8 C 20 %
340 07-07-2020 00:00:00 8 C 20 %
341 08-07-2020 00:00:00 13.7 C 28 %
342 09-07-2020 00:00:00 16.2 C 20 %
343 10-07-2020 00:00:00 15.6 C 24 %
344 11-07-2020 00:00:00 9.4 C 20 %
345 12-07-2020 00:00:00 8.6 C 20 %
346 13-07-2020 00:00:00 9.2 C 20 %
347 14-07-2020 00:00:00 11.9 C 20 %
348 15-07-2020 00:00:00 14.1 C 20 %
349 16-07-2020 00:00:00 13.9 C 30 %
350 17-07-2020 00:00:00 14.7 C 20 %
Sensor: Nr:Datum:Temp:Feuchte:
Aussen-T/F 351 18-07-2020 00:00:00 12.2 C 20 %
352 19-07-2020 00:00:00 13.9 C 20 %
353 20-07-2020 00:00:00 14.7 C 20 %
354 21-07-2020 00:00:00 11.3 C 20 %
355 22-07-2020 00:00:00 8.6 C 20 %
356 23-07-2020 00:00:00 10 C 20 %
357 24-07-2020 00:00:00 15.6 C 20 %
358 25-07-2020 00:00:00 14.1 C 20 %
359 26-07-2020 00:00:00 16.6 C 20 %
360 27-07-2020 00:00:00 12 C 20 %
361 28-07-2020 00:00:00 16.8 C 20 %
362 29-07-2020 00:00:00 11.1 C 20 %
363 30-07-2020 00:00:00 10.9 C 20 %
364 31-07-2020 00:00:00 12.8 C 20 %
365 01-08-2020 00:00:00 17.2 C 20 %
366 02-08-2020 00:00:00 17.7 C 20 %
Sensor: Nr:Datum:Temp:Feuchte:
G-T/H 1 03-08-2019 00:00:00 20.6 C 58 %
2 04-08-2019 00:00:00 19.8 C 58 %
3 05-08-2019 00:00:00 20.7 C 44 %
4 06-08-2019 00:00:00 21.2 C 57 %
5 07-08-2019 00:00:00 20.4 C 60 %
6 08-08-2019 00:00:00 20 C 61 %
7 09-08-2019 00:00:00 20.2 C 63 %
8 10-08-2019 00:00:00 20 C 59 %
9 11-08-2019 00:00:00 19.5 C 63 %
10 12-08-2019 00:00:00 18.6 C 64 %
11 13-08-2019 00:00:00 16.4 C 46 %
12 14-08-2019 00:00:00 15.4 C 46 %
13 15-08-2019 00:00:00 18.7 C 58 %
14 16-08-2019 00:00:00 18.1 C 65 %
15 17-08-2019 00:00:00 18.6 C 66 %
16 18-08-2019 00:00:00 18.7 C 68 %
17 19-08-2019 00:00:00 17.7 C 46 %
18 20-08-2019 00:00:00 15.3 C 50 %
19 21-08-2019 00:00:00 17.8 C 60 %
20 22-08-2019 00:00:00 17.5 C 41 %
21 23-08-2019 00:00:00 14.9 C 40 %
22 24-08-2019 00:00:00 18.2 C 56 %
23 25-08-2019 00:00:00 19 C 61 %
24 26-08-2019 00:00:00 19.1 C 52 %
25 27-08-2019 00:00:00 20.8 C 65 %
Sensor: Nr:Datum:Temp:Feuchte:
G-T/H 26 28-08-2019 00:00:00 20.7 C 65 %
27 29-08-2019 00:00:00 20.7 C 66 %
28 30-08-2019 00:00:00 20.3 C 65 %
29 31-08-2019 00:00:00 19.7 C 66 %
30 01-09-2019 00:00:00 20.1 C 60 %
31 02-09-2019 00:00:00 15.8 C 39 %
32 03-09-2019 00:00:00 12.5 C 45 %
33 04-09-2019 00:00:00 17.4 C 50 %
34 05-09-2019 00:00:00 18 C 58 %
35 06-09-2019 00:00:00 16.6 C 41 %
36 07-09-2019 00:00:00 15.2 C 55 %
37 08-09-2019 00:00:00 16.2 C 64 %
38 09-09-2019 00:00:00 14.7 C 61 %
39 10-09-2019 00:00:00 11.7 C 50 %
40 11-09-2019 00:00:00 12 C 53 %
41 12-09-2019 00:00:00 16.6 C 63 %
42 13-09-2019 00:00:00 17.7 C 68 %
43 14-09-2019 00:00:00 16.6 C 52 %
44 15-09-2019 00:00:00 16.4 C 50 %
45 16-09-2019 00:00:00 14.9 C 52 %
46 17-09-2019 00:00:00 17.3 C 58 %
47 18-09-2019 00:00:00 11.2 C 48 %
48 19-09-2019 00:00:00 9.9 C 46 %
49 20-09-2019 00:00:00 8.9 C 52 %
50 21-09-2019 00:00:00 13.2 C 33 %
Sensor: Nr:Datum:Temp:Feuchte:
G-T/H 51 22-09-2019 00:00:00 14.5 C 52 %
52 23-09-2019 00:00:00 15.9 C 63 %
53 24-09-2019 00:00:00 15.8 C 65 %
54 25-09-2019 00:00:00 16 C 67 %
55 26-09-2019 00:00:00 16.1 C 69 %
56 27-09-2019 00:00:00 16.6 C 66 %
57 28-09-2019 00:00:00 16.1 C 67 %
58 29-09-2019 00:00:00 16.2 C 69 %
59 30-09-2019 00:00:00 16.2 C 58 %
60 01-10-2019 00:00:00 16.3 C 66 %
61 02-10-2019 00:00:00 15.3 C 62 %
62 03-10-2019 00:00:00 14.3 C 63 %
63 04-10-2019 00:00:00 13.9 C 69 %
64 05-10-2019 00:00:00 14.1 C 68 %
65 06-10-2019 00:00:00 13.5 C 69 %
66 07-10-2019 00:00:00 13.4 C 72 %
67 08-10-2019 00:00:00 13.9 C 73 %
68 09-10-2019 00:00:00 14 C 74 %
69 10-10-2019 00:00:00 13.8 C 74 %
70 11-10-2019 00:00:00 13.6 C 74 %
71 12-10-2019 00:00:00 13.5 C 67 %
72 13-10-2019 00:00:00 14.8 C 73 %
73 14-10-2019 00:00:00 14.4 C 66 %
74 15-10-2019 00:00:00 14.1 C 72 %
75 16-10-2019 00:00:00 15.2 C 72 %
Sensor: Nr:Datum:Temp:Feuchte:
G-T/H 76 17-10-2019 00:00:00 15.1 C 74 %
77 18-10-2019 00:00:00 14.8 C 73 %
78 19-10-2019 00:00:00 14.2 C 70 %
79 20-10-2019 00:00:00 13.8 C 79 %
80 21-10-2019 00:00:00 13.9 C 78 %
81 22-10-2019 00:00:00 14.5 C 77 %
82 23-10-2019 00:00:00 13.7 C 75 %
83 24-10-2019 00:00:00 13 C 75 %
84 25-10-2019 00:00:00 14.7 C 67 %
85 26-10-2019 00:00:00 14.4 C 72 %
86 27-10-2019 00:00:00 13.5 C 72 %
87 28-10-2019 00:00:00 12.6 C 69 %
88 29-10-2019 00:00:00 11.7 C 68 %
89 30-10-2019 00:00:00 9.7 C 63 %
90 31-10-2019 00:00:00 7.3 C 60 %
91 01-11-2019 00:00:00 9.2 C 66 %
92 02-11-2019 00:00:00 10.6 C 72 %
93 03-11-2019 00:00:00 12.7 C 75 %
94 04-11-2019 00:00:00 12.7 C 75 %
95 05-11-2019 00:00:00 12.4 C 75 %
96 06-11-2019 00:00:00 12.2 C 75 %
97 07-11-2019 00:00:00 11.6 C 72 %
98 08-11-2019 00:00:00 10.1 C 67 %
99 09-11-2019 00:00:00 8.5 C 63 %
100 10-11-2019 00:00:00 8.8 C 65 %
Sensor: Nr:Datum:Temp:Feuchte:
G-T/H 101 11-11-2019 00:00:00 9.8 C 70 %
102 12-11-2019 00:00:00 10 C 70 %
103 13-11-2019 00:00:00 9.8 C 71 %
104 14-11-2019 00:00:00 8 C 57 %
105 15-11-2019 00:00:00 9.3 C 66 %
106 16-11-2019 00:00:00 9.2 C 66 %
107 17-11-2019 00:00:00 8.9 C 68 %
108 18-11-2019 00:00:00 9.3 C 72 %
109 19-11-2019 00:00:00 9.3 C 71 %
110 20-11-2019 00:00:00 8.7 C 70 %
111 21-11-2019 00:00:00 8.2 C 70 %
112 22-11-2019 00:00:00 8.5 C 72 %
113 23-11-2019 00:00:00 9.1 C 71 %
114 24-11-2019 00:00:00 8.9 C 71 %
115 25-11-2019 00:00:00 8.8 C 73 %
116 26-11-2019 00:00:00 9.5 C 74 %
117 27-11-2019 00:00:00 10.5 C 75 %
118 28-11-2019 00:00:00 11.4 C 75 %
119 29-11-2019 00:00:00 10.4 C 68 %
120 30-11-2019 00:00:00 9.2 C 66 %
121 01-12-2019 00:00:00 8.7 C 69 %
122 02-12-2019 00:00:00 8.1 C 69 %
123 03-12-2019 00:00:00 8.4 C 72 %
124 04-12-2019 00:00:00 8.1 C 68 %
125 05-12-2019 00:00:00 7.1 C 68 %
Sensor: Nr:Datum:Temp:Feuchte:
G-T/H 126 06-12-2019 00:00:00 7.2 C 68 %
127 07-12-2019 00:00:00 8.1 C 73 %
128 08-12-2019 00:00:00 9.7 C 74 %
129 09-12-2019 00:00:00 10.2 C 73 %
130 10-12-2019 00:00:00 8.8 C 71 %
131 11-12-2019 00:00:00 8.7 C 73 %
132 12-12-2019 00:00:00 8.4 C 71 %
133 13-12-2019 00:00:00 8.2 C 70 %
134 14-12-2019 00:00:00 8.6 C 68 %
135 15-12-2019 00:00:00 9.2 C 74 %
136 16-12-2019 00:00:00 9.6 C 74 %
137 17-12-2019 00:00:00 10.2 C 75 %
138 18-12-2019 00:00:00 10.3 C 73 %
139 19-12-2019 00:00:00 9.6 C 71 %
140 20-12-2019 00:00:00 9.5 C 74 %
141 21-12-2019 00:00:00 9.9 C 74 %
142 22-12-2019 00:00:00 10 C 74 %
143 23-12-2019 00:00:00 10.2 C 75 %
144 24-12-2019 00:00:00 10 C 74 %
145 25-12-2019 00:00:00 10.2 C 75 %
146 26-12-2019 00:00:00 9.7 C 74 %
147 27-12-2019 00:00:00 9.6 C 74 %
148 28-12-2019 00:00:00 5.1 C 61 %
149 29-12-2019 00:00:00 6.8 C 69 %
150 30-12-2019 00:00:00 6.8 C 68 %
Sensor: Nr:Datum:Temp:Feuchte:
G-T/H 151 31-12-2019 00:00:00 6.4 C 68 %
152 01-01-2020 00:00:00 6 C 68 %
153 02-01-2020 00:00:00 6.7 C 69 %
154 03-01-2020 00:00:00 8 C 71 %
155 04-01-2020 00:00:00 8.8 C 73 %
156 05-01-2020 00:00:00 9.3 C 73 %
157 06-01-2020 00:00:00 8.6 C 69 %
158 07-01-2020 00:00:00 8.5 C 70 %
159 08-01-2020 00:00:00 8.8 C 73 %
160 09-01-2020 00:00:00 9.7 C 76 %
161 10-01-2020 00:00:00 10.8 C 74 %
162 11-01-2020 00:00:00 9.5 C 71 %
163 12-01-2020 00:00:00 9 C 72 %
164 13-01-2020 00:00:00 9.2 C 74 %
165 14-01-2020 00:00:00 9.5 C 75 %
166 15-01-2020 00:00:00 10.4 C 75 %
167 16-01-2020 00:00:00 10.4 C 75 %
168 17-01-2020 00:00:00 9.6 C 74 %
169 18-01-2020 00:00:00 9.1 C 73 %
170 19-01-2020 00:00:00 8.7 C 73 %
171 20-01-2020 00:00:00 8.2 C 69 %
172 21-01-2020 00:00:00 7.1 C 68 %
173 22-01-2020 00:00:00 6.5 C 67 %
174 23-01-2020 00:00:00 7.3 C 69 %
175 24-01-2020 00:00:00 7.4 C 70 %
Sensor: Nr:Datum:Temp:Feuchte:
G-T/H 176 25-01-2020 00:00:00 7.6 C 70 %
177 26-01-2020 00:00:00 7.9 C 72 %
178 27-01-2020 00:00:00 7.9 C 73 %
179 28-01-2020 00:00:00 8.6 C 74 %
180 29-01-2020 00:00:00 8.3 C 74 %
181 30-01-2020 00:00:00 8.3 C 74 %
182 31-01-2020 00:00:00 9.3 C 76 %
183 01-02-2020 00:00:00 11.1 C 75 %
184 02-02-2020 00:00:00 10.9 C 70 %
185 03-02-2020 00:00:00 11.4 C 75 %
186 04-02-2020 00:00:00 9.9 C 68 %
187 05-02-2020 00:00:00 9 C 70 %
188 06-02-2020 00:00:00 7.9 C 68 %
189 07-02-2020 00:00:00 7.4 C 68 %
190 08-02-2020 00:00:00 7 C 68 %
191 09-02-2020 00:00:00 7.6 C 73 %
192 10-02-2020 00:00:00 9.5 C 72 %
193 11-02-2020 00:00:00 8.9 C 72 %
194 12-02-2020 00:00:00 8.5 C 72 %
195 13-02-2020 00:00:00 7.9 C 70 %
196 14-02-2020 00:00:00 8.5 C 74 %
197 15-02-2020 00:00:00 8.5 C 71 %
198 16-02-2020 00:00:00 9.2 C 55 %
199 17-02-2020 00:00:00 11.1 C 67 %
200 18-02-2020 00:00:00 10 C 60 %
Sensor: Nr:Datum:Temp:Feuchte:
G-T/H 201 19-02-2020 00:00:00 9.6 C 67 %
202 20-02-2020 00:00:00 9.5 C 70 %
203 21-02-2020 00:00:00 9.3 C 71 %
204 22-02-2020 00:00:00 9 C 71 %
205 23-02-2020 00:00:00 9.8 C 73 %
206 24-02-2020 00:00:00 10.2 C 70 %
207 25-02-2020 00:00:00 10.7 C 70 %
208 26-02-2020 00:00:00 9.7 C 66 %
209 27-02-2020 00:00:00 8.6 C 69 %
210 28-02-2020 00:00:00 8 C 73 %
211 29-02-2020 00:00:00 8.5 C 74 %
212 01-03-2020 00:00:00 9.6 C 74 %
213 02-03-2020 00:00:00 9.3 C 72 %
214 03-03-2020 00:00:00 9.2 C 71 %
215 04-03-2020 00:00:00 8.6 C 72 %
216 05-03-2020 00:00:00 9 C 73 %
217 06-03-2020 00:00:00 9.4 C 74 %
218 07-03-2020 00:00:00 9.2 C 74 %
219 08-03-2020 00:00:00 9.6 C 74 %
220 09-03-2020 00:00:00 10.4 C 72 %
221 10-03-2020 00:00:00 10 C 71 %
222 11-03-2020 00:00:00 10.9 C 75 %
223 12-03-2020 00:00:00 11.9 C 64 %
224 13-03-2020 00:00:00 10.8 C 65 %
225 14-03-2020 00:00:00 9.9 C 67 %
Sensor: Nr:Datum:Temp:Feuchte:
G-T/H 226 15-03-2020 00:00:00 9.9 C 51 %
227 16-03-2020 00:00:00 10.1 C 63 %
228 17-03-2020 00:00:00 11.2 C 70 %
229 18-03-2020 00:00:00 11 C 68 %
230 19-03-2020 00:00:00 11.8 C 56 %
231 20-03-2020 00:00:00 12.3 C 66 %
232 21-03-2020 00:00:00 10.7 C 60 %
233 22-03-2020 00:00:00 9.3 C 58 %
234 23-03-2020 00:00:00 8.4 C 62 %
235 24-03-2020 00:00:00 7.7 C 62 %
236 25-03-2020 00:00:00 7.4 C 62 %
237 26-03-2020 00:00:00 7.6 C 63 %
238 27-03-2020 00:00:00 8.2 C 48 %
239 28-03-2020 00:00:00 9.6 C 49 %
240 29-03-2020 00:00:00 9.6 C 59 %
241 30-03-2020 00:00:00 7.9 C 50 %
242 31-03-2020 00:00:00 8.4 C 56 %
243 01-04-2020 00:00:00 7.7 C 61 %
244 02-04-2020 00:00:00 7.6 C 62 %
245 03-04-2020 00:00:00 8.6 C 47 %
246 04-04-2020 00:00:00 4.2 C 46 %
247 05-04-2020 00:00:00 8.7 C 60 %
248 06-04-2020 00:00:00 9.7 C 62 %
249 07-04-2020 00:00:00 10.9 C 44 %
250 08-04-2020 00:00:00 12.7 C 58 %
Sensor: Nr:Datum:Temp:Feuchte:
G-T/H 251 09-04-2020 00:00:00 12.6 C 47 %
252 10-04-2020 00:00:00 13.2 C 57 %
253 11-04-2020 00:00:00 12.9 C 58 %
254 12-04-2020 00:00:00 13.1 C 61 %
255 13-04-2020 00:00:00 12.4 C 55 %
256 14-04-2020 00:00:00 11 C 56 %
257 15-04-2020 00:00:00 10.3 C 40 %
258 16-04-2020 00:00:00 6.8 C 41 %
259 17-04-2020 00:00:00 12.8 C 46 %
260 18-04-2020 00:00:00 12.2 C 55 %
261 19-04-2020 00:00:00 14.1 C 58 %
262 20-04-2020 00:00:00 13.1 C 58 %
263 21-04-2020 00:00:00 12.8 C 55 %
264 22-04-2020 00:00:00 13 C 58 %
265 23-04-2020 00:00:00 13.2 C 58 %
266 24-04-2020 00:00:00 13.4 C 35 %
267 25-04-2020 00:00:00 12.5 C 40 %
268 26-04-2020 00:00:00 7.8 C 45 %
269 27-04-2020 00:00:00 12.6 C 55 %
270 28-04-2020 00:00:00 13.4 C 60 %
271 29-04-2020 00:00:00 13.6 C 64 %
272 30-04-2020 00:00:00 13.9 C 65 %
273 01-05-2020 00:00:00 13.1 C 64 %
274 02-05-2020 00:00:00 12.7 C 65 %
275 03-05-2020 00:00:00 11.9 C 64 %
Sensor: Nr:Datum:Temp:Feuchte:
G-T/H 276 04-05-2020 00:00:00 13.2 C 66 %

Maximal/Minimal-Werte vom 03.08.2019 - 02.08.2020

Sensor Min Max Avg
Temp
(Aussen-T/F)
-5 °C
29-12-2019  07:23:17
43.5 °C
31-07-2020  17:11:17
11.46 °C
Feuchte
(Aussen-T/F)
20 %
03-08-2019  09:43:17
64 %
10-08-2019  05:43:17
31.69 %
Temp
(G-T/H)
4.2 °C
04-04-2020  07:31:18
25.7 °C
26-08-2019  15:08:17
12.22 °C
Feuchte
(G-T/H)
33 %
21-09-2019  16:35:17
83 %
20-10-2019  15:57:17
68.75 %

Warnung:
When displaying minima or maxima values for days, weeks, months or years no virtual sensors will be displayed.



Die Daten stammen von einer Davis Vantage Pro 2 Wetter-Station und werden unter Linux mit der Software wview2wettercgi und aufbereitet. Alle Angaben erfolgen ohne Gewähr für ihre Vollständigkeit oder Richtigkeit.
Kontakt: Rainer Krienke krienke@uni-koblenz.de . Meine Webseiten an der Uni Koblenz oder privat.
Version: $Revision: 0.78 $